Location: Burland Observatory
(39.4088°N, 105.4217°W)
Time: 09:36:58
(UTC-07:00)

Vanguard 3 - Pass Details

Date: 13 December 2019
Orbit: 507 x 3263 km, 33.4° (Epoch: 22 January)

Event Time Altitude Azimuth Distance (km) Brightness Sun altitude
Rises 14:47:51 0° 272° (W) 6,132 12.2 15.7°
Reaches altitude 10° 14:53:42 10° 255° (WSW) 5,552 12.5 14.9°
Maximum altitude 15:03:29 18° 221° (SW) 5,373 14.5 13.6°
Drops below altitude 10° 15:14:23 10° 187° (S) 6,189 12.6 12.1°
Sets 15:21:48 0° 171° (S) 7,092 12.4 11.1°
